Dewpoint
17 19 18 19 28 36 33 37 59 66 66 66 65 65 64 64 65 64 64 65 65 66 66 65 64 64 63 62 62 62 60 60 60 58 58 58 58 59 59 59 58 58 58
17 19 20 28 39 42 45 39 49 64 66 66 66 66 65 65 65 66 66 66 66 66 65 65 64 64 63 63 62 61 60 59 60 58 56 54 55 57 58 59 58 57 58
18 18 18 31 46 49 52 51 52 61 66 66 66 63 64 63 63 64 65 66 66 66 66 66 65 64 64 63 63 61 60 59 59 59 55 53 51 53 56 57 57 57 57
38 35 24 28 49 52 54 56 61 64 65 65 64 64 62 62 62 64 64 64 65 65 66 66 65 64 64 63 62 62 61 60 58 59 57 56 55 51 52 56 57 57 56
38 37 35 24 50 52 53 56 58 59 58 59 62 60 60 61 61 62 62 63 63 64 65 65 65 64 63 63 62 61 61 61 59 58 57 56 54 53 52 51 54 56 57
39 40 38 44 50 50 52 54 57 57 57 58 58 59 59 58 58 59 61 63 62 62 64 64 64 64 63 63 62 62 61 61 60 59 58 56 54 52 52 51 53 53 55
40 42 44 48 50 50 54 55 55 56 56 56 56 57 57 57 57 58 59 60 61 61 61 62 62 63 63 62 62 62 61 61 60 60 59 58 57 54 53 52 52 53 54
39 42 47 47 49 51 51 51 51 51 50 50 51 51 52 55 57 57 57 59 60 60 60 61 62 62 62 62 62 62 61 61 61 60 60 59 58 57 54 52 52 52 52
39 42 49 49 49 49 49 48 47 46 46 48 48 49 50 51 52 55 57 58 59 59 59 59 61 62 62 62 62 62 61 61 61 61 60 59 59 59 57 55 54 53 50
41 44 49 48 47 46 45 44 44 44 44 45 46 47 48 49 49 50 50 53 57 58 58 59 60 61 62 62 62 61 61 61 61 61 59 59 59 59 58 57 56 54 53
41 39 39 42 43 41 40 40 41 42 42 43 44 45 46 46 47 47 47 48 51 53 56 58 59 61 61 61 61 61 61 61 60 60 59 59 59 59 59 58 57 55 54
38 39 37 36 39 38 37 36 37 39 41 41 41 42 42 43 43 43 44 46 46 48 52 54 59 60 61 61 61 61 60 60 60 59 59 59 59 58 59 59 57 56 55
36 37 36 34 34 35 34 34 34 34 36 39 40 39 39 38 39 40 41 43 44 44 46 51 54 59 60 60 60 60 60 60 60 60 59 59 58 58 58 58 57 57 56
36 36 35 33 33 34 33 31 32 31 33 36 37 35 36 36 37 38 39 40 41 43 44 46 50 52 59 60 60 59 60 59 59 59 59 59 58 58 58 57 57 56 55
30 30 32 33 32 30 29 29 30 30 31 32 32 32 33 34 35 36 37 38 40 41 42 43 46 49 52 59 59 59 59 58 58 58 58 58 56 52 54 57 56 56 55
26 26 26 26 27 26 25 26 28 28 29 29 29 29 30 30 32 34 35 37 38 39 40 40 42 45 48 48 47 53 57 57 56 55 55 56 50 50 46 45 46 52 50
25 24 24 24 25 25 24 24 26 27 27 27 26 27 28 28 31 33 34 35 36 38 39 40 42 43 46 44 45 45 56 56 56 55 53 51 50 49 52 44 43 43 43
23 23 23 22 23 23 23 24 25 25 25 25 25 26 27 28 30 30 32 33 34 36 37 39 40 42 43 41 41 43 52 54 53 51 49 50 43 44 46 43 40 38 44
23 23 22 21 22 21 22 23 24 24 23 23 24 25 26 26 28 28 31 32 32 33 35 38 40 40 40 39 38 39 49 44 40 37 37 40 40 40 42 40 38 35 34
22 22 22 19 20 20 21 22 22 22 22 22 23 25 26 26 26 28 29 30 31 32 35 37 38 37 36 37 37 38 45 41 38 35 34 36 36 36 37 40 38 36 35
21 21 22 20 20 20 20 21 21 21 22 23 23 23 24 25 25 27 28 28 28 31 33 35 35 35 34 35 36 38 38 38 36 35 33 33 35 36 37 37 36 36 34
21 20 20 21 20 20 20 20 19 21 22 22 22 22 23 24 24 25 25 26 27 28 31 33 34 34 33 34 34 35 35 35 34 34 34 33 35 35 34 34 33 32 32
20 19 20 20 19 20 20 20 20 21 21 21 21 21 21 21 23 22 23 24 25 25 26 29 32 33 32 32 32 33 33 33 31 32 32 33 33 32 31 32 32 31 32
20 20 19 19 18 19 20 21 21 21 21 20 19 20 19 20 20 20 21 22 24 24 25 26 28 32 30 30 30 30 32 32 32 31 30 28 28 28 28 28 28 30 29
21 21 18 18 18 19 19 21 22 21 20 20 18 18 17 16 17 19 18 20 21 26 26 27 29 30 31 29 29 29 29 28 26 25 26 25 25 24 24 24 24 24 24
19 20 18 18 18 19 19 20 21 21 20 18 18 18 17 16 16 17 17 21 23 26 26 29 31 31 31 30 30 30 28 27 27 25 23 23 24 23 23 22 22 23 22
Lifted_Index
7 7 7 7 7 6 5 3 -1 -6 -8 -7 -7 -7 -7 -6 -5 -5 -5 -5 -5 -4 -4 -4 -4 -5 -4 -4 -3 -3 -3 -2 -2 -1 -1 -0 0 0 1 1 1 1 2
8 7 7 7 6 5 5 3 0 -5 -7 -8 -7 -7 -7 -6 -6 -5 -5 -5 -5 -4 -4 -4 -5 -5 -4 -4 -3 -3 -3 -2 -2 -1 -1 -0 0 0 1 1 1 2 2
8 8 8 7 6 4 3 2 -0 -4 -7 -8 -8 -7 -7 -6 -5 -5 -5 -5 -5 -5 -5 -5 -5 -5 -5 -4 -3 -3 -2 -2 -2 -2 -1 -0 0 1 1 1 2 2 2
8 8 8 7 5 3 1 -0 -3 -5 -7 -8 -8 -7 -6 -6 -5 -5 -5 -5 -5 -5 -5 -5 -5 -5 -5 -4 -4 -3 -2 -2 -2 -2 -1 -1 0 0 1 1 1 2 2
7 7 7 6 4 1 -1 -2 -4 -6 -7 -7 -6 -6 -5 -5 -5 -5 -5 -5 -5 -5 -5 -5 -5 -5 -5 -4 -4 -3 -2 -2 -2 -2 -2 -1 -1 -0 0 1 1 2 2
6 6 6 5 2 -0 -2 -3 -4 -5 -5 -5 -5 -4 -4 -4 -4 -4 -4 -4 -4 -4 -4 -5 -5 -4 -4 -4 -3 -3 -2 -2 -2 -2 -2 -2 -1 -1 -0 0 1 1 2
5 5 4 3 1 -1 -2 -2 -3 -3 -3 -3 -3 -3 -2 -2 -2 -3 -3 -4 -4 -4 -4 -4 -4 -4 -3 -3 -3 -3 -2 -2 -2 -3 -3 -2 -2 -1 -0 0 0 1 1
3 2 2 1 -1 -1 -2 -2 -2 -2 -2 -1 -1 -1 -0 -0 -1 -1 -2 -3 -4 -4 -4 -4 -3 -3 -3 -3 -3 -2 -2 -2 -2 -3 -3 -3 -2 -2 -1 -0 0 0 1
1 -0 -1 -1 -1 -1 -1 -0 -0 0 1 1 2 2 2 2 1 0 -1 -2 -3 -4 -4 -4 -3 -3 -2 -2 -2 -2 -2 -2 -2 -3 -3 -3 -3 -2 -1 -1 -0 0 1
-0 -1 -1 -1 -1 -1 0 1 2 3 3 3 3 4 4 4 3 2 1 -1 -2 -3 -3 -3 -3 -3 -3 -3 -2 -2 -2 -2 -2 -3 -3 -3 -3 -2 -2 -1 -0 0 1
1 1 2 3 2 1 1 2 3 3 3 3 3 4 4 5 4 4 2 1 -1 -2 -2 -2 -2 -2 -3 -3 -2 -2 -2 -2 -2 -3 -3 -3 -2 -2 -1 -0 -0 0 0
2 3 4 6 6 4 2 3 3 3 3 3 4 4 5 6 6 5 4 3 2 0 -1 -1 -1 -2 -2 -3 -2 -2 -2 -2 -2 -3 -3 -2 -2 -1 -0 -0 -0 -0 0
3 4 5 6 7 6 5 4 4 4 4 5 5 6 7 7 7 6 6 5 4 3 2 1 -0 -1 -2 -2 -2 -2 -2 -1 -2 -2 -2 -2 -1 -1 -0 -0 -0 -0 -0
4 4 5 6 7 8 7 6 6 6 6 6 7 7 7 7 7 7 7 6 6 5 4 3 1 0 -1 -1 -2 -2 -2 -1 -1 -2 -2 -2 -1 -1 -1 -0 -0 -0 -0
4 5 6 6 7 8 8 8 8 8 8 8 7 7 7 7 7 7 7 6 6 5 5 4 3 1 0 -1 -1 -1 -2 -2 -1 -1 -1 -1 -1 -1 -1 -0 -0 0 0
4 5 6 6 7 8 8 9 9 9 9 9 8 8 7 7 7 7 6 6 6 5 5 5 4 2 1 0 -0 -1 -1 -2 -1 -1 -1 -1 -1 -1 -1 -0 0 1 1
5 5 6 6 7 8 8 9 9 10 9 9 8 8 8 7 7 7 6 6 6 5 5 5 4 3 2 1 0 -0 -1 -1 -1 -1 -1 -1 -1 -1 -1 -0 0 1 1
6 7 8 8 8 9 9 9 9 9 9 9 8 8 8 7 7 7 6 6 6 6 6 5 5 4 3 1 1 0 -0 -0 -1 -1 -1 -0 -0 -1 -0 -0 0 1 1
8 9 10 10 10 10 10 9 9 9 9 8 8 8 8 7 7 7 7 6 6 6 6 6 6 5 4 3 2 1 0 0 0 0 0 0 -0 -0 0 0 0 1 1
9 10 11 11 11 10 10 9 9 8 8 8 9 9 8 8 7 7 7 7 7 6 6 7 6 6 5 4 3 2 1 0 1 1 0 0 -0 -0 0 0 1 1 1
10 10 10 11 11 11 10 9 9 9 9 9 9 9 10 9 9 8 8 8 7 7 7 7 7 7 6 5 4 2 1 1 1 1 0 -0 -0 0 0 0 1 1 1
9 10 10 10 11 11 11 10 10 10 11 10 10 10 11 11 11 10 9 9 8 7 7 7 7 8 7 6 5 3 2 2 2 1 0 0 0 1 1 1 1 1 2
9 10 10 10 11 11 11 10 11 12 11 11 11 11 11 12 12 11 10 9 8 8 7 7 7 8 8 8 7 5 3 2 2 2 1 1 1 1 1 1 1 2 2
10 10 10 10 11 12 12 12 12 12 12 11 11 11 12 12 12 12 11 10 9 9 8 7 8 8 8 8 8 7 5 3 3 3 2 2 1 2 2 2 2 3 3
10 11 11 11 12 12 13 14 14 14 13 12 11 12 12 12 12 12 13 13 12 12 10 10 9 9 10 10 10 9 8 6 5 4 3 2 2 2 3 3 3 4 5
11 11 12 12 12 13 13 14 15 15 13 12 12 12 13 13 13 12 13 15 15 14 13 13 12 11 12 11 11 11 10 9 7 5 3 2 2 3 3 3 4 5 5